Content
SEND FEEDBACK

Daily
Averages
Monthly
Summary
United States of America

LEADVILLE, COLORADO


Home > North America > United States > Colorado
Elevation: 9927 feet     Latitude: 39 13N     Longitude: 106 18W

WEATHER
 
SELECT A DAY
Number of Records: 189,989;   Date Range: 1/4/95 - 8/28/14
 
SHARE

PRINT THIS DATA

[ ← Previous Day ]
WEATHER ALMANAC - JANUARY 31, 2013
[ Next Day → ]
[ °C ]   °F
Weather ElementAverageHighLow
Temperature17 °F24.1 °F (1:53 pm)14 °F (12:33 am)
Dewpoint10.4 °F12.2 °F (1:39 am)6.1 °F (5:53 pm)
Humidity76.1 %93 % (1:39 am)53 % (2:53 pm)
Barometer30.10 in30.23 in (7:53 pm)29.97 in (1:39 am)
Wind Speed9.1 mph18.4 mph (2:53 pm)
Wind Gust29.9 mph (2:53 pm)
Weather ElementAverage
Visibility4.6 mi
Wind DirectionWSW (254.2 °)

Weather ElementTotal
Precipitation0.26 in
Heating Degree Days46 (Base 65)
Averaged from 50 records on January 31, 2013
WEATHER CONDITIONS BREAKOUT
WIND DIRECTION BREAKOUT
WEATHER BY HOUR - JANUARY 31, 2013
[ °C ]   °F
Local TimeTemperatureDewpointHumidityBarometerVisibilityWind DirectionWind SpeedGust SpeedPrecipitationEventsConditions
12:33 AM14.0 °F10.4 °F86 %29.98 in1.2 miNorth (360°)8.1 mph0.02 inSnowLight Snow
12:53 AM15.1 °F10.9 °F84 %30.03 in2.5 miWNW (300°)11.5 mph0.02 inSnowLight Snow
1:05 AM15.8 °F10.4 °F79 %29.98 in2.5 miNNW (330°)9.2 mph17.3 mph0.00 inSnowLight Snow
1:23 AM15.8 °F10.4 °F79 %29.98 in1.8 miNNW (330°)8.1 mph0.00 inSnowLight Snow
1:39 AM14.0 °F12.2 °F93 %29.97 in0.8 miNNW (330°)9.2 mph0.01 inSnowLight Snow
1:53 AM14.0 °F10.9 °F88 %30.02 in1.0 miNW (320°)9.2 mph18.4 mph0.02 inSnowLight Snow
1:57 AM14.0 °F12.2 °F93 %29.98 in0.8 miNNW (330°)8.1 mph18.4 mph0.00 inSnowLight Snow
2:06 AM14.0 °F12.2 °F93 %29.97 in1.0 miNNW (340°)6.9 mph0.00 inSnowLight Snow
2:44 AM15.8 °F10.4 °F79 %29.98 in1.5 miNNW (330°)11.5 mph17.3 mph0.02 inSnowLight Snow
2:53 AM15.1 °F10.9 °F84 %30.03 in1.5 miNNW (330°)9.2 mph19.6 mph0.02 inSnowLight Snow
3:07 AM15.8 °F10.4 °F79 %29.99 in0.8 miNW (320°)10.4 mph20.7 mph0.00 inSnowLight Snow
3:23 AM14.0 °F12.2 °F93 %29.98 in0.5 miNW (320°)11.5 mph19.6 mph0.01 inFog-SnowSnow
3:43 AM15.8 °F10.4 °F79 %29.98 in1.0 miNW (310°)13.8 mph23.0 mph0.02 inSnowLight Snow
3:53 AM15.1 °F10.9 °F84 %30.02 in1.5 miNW (310°)15.0 mph21.9 mph0.02 inSnowLight Snow
4:05 AM15.8 °F10.4 °F79 %30.00 in1.8 miNW (320°)16.1 mph21.9 mph0.00 inSnowLight Snow
4:40 AM15.8 °F10.4 °F79 %30.04 in2.0 miNW (310°)12.7 mph20.7 mph0.01 inSnowLight Snow
4:53 AM16.0 °F10.9 °F81 %30.08 in2.5 miWNW (300°)11.5 mph0.01 inSnowLight Snow
5:05 AM15.8 °F10.4 °F79 %30.04 in1.2 miNW (310°)10.4 mph0.00 inSnowLight Snow
5:25 AM15.8 °F12.2 °F86 %30.04 in1.5 miNW (310°)10.4 mph0.00 inSnowLight Snow
5:34 AM15.8 °F12.2 °F86 %30.05 in2.0 miNW (310°)8.1 mph16.1 mph0.01 inSnowLight Snow
5:47 AM15.8 °F12.2 °F86 %30.05 in1.2 miWNW (300°)6.9 mph0.01 inSnowLight Snow
5:53 AM15.1 °F12.0 °F88 %30.10 in1.0 miWNW (300°)9.2 mph0.01 inSnowLight Snow
6:41 AM15.8 °F10.4 °F79 %30.05 in2.0 miNNE (20°)4.6 mph0.01 inSnowLight Snow
6:53 AM16.0 °F10.0 °F77 %30.09 in5.0 miVariable5.8 mph0.01 inSnowLight Snow
7:13 AM15.8 °F8.6 °F73 %30.07 in10.0 miNNW (340°)10.4 mph0.00 inOvercast
7:53 AM15.1 °F10.0 °F80 %30.13 in2.0 miNorth (360°)10.4 mph0.00 inSnowLight Snow
8:19 AM15.8 °F10.4 °F79 %30.12 in1.8 miNorth (350°)8.1 mph0.00 inSnowLight Snow
8:32 AM15.8 °F10.4 °F79 %30.12 in2.0 miNorth (350°)6.9 mph0.00 inSnowLight Snow
8:53 AM17.1 °F10.9 °F77 %30.16 in3.0 miNNW (330°)4.6 mph0.00 inSnowLight Snow
9:06 AM17.6 °F10.4 °F73 %30.14 in5.0 miNW (310°)8.1 mph0.01 inSnowLight Snow
9:53 AM17.1 °F9.0 °F71 %30.18 in9.0 miWNW (290°)15.0 mph27.6 mph0.02 inOvercast
10:43 AM17.6 °F10.4 °F73 %30.20 in2.5 miNW (310°)8.1 mph0.00 inSnowLight Snow
10:53 AM18.0 °F10.9 °F74 %30.21 in2.5 miVariable5.8 mph0.00 inSnowLight Snow
11:00 AM19.4 °F10.4 °F68 %30.20 in6.0 miVariable3.5 mph0.00 inSnowLight Snow
11:19 AM19.4 °F12.2 °F74 %30.20 in6.0 miVariable5.8 mph0.00 inSnowLight Snow
11:53 AM21.0 °F10.9 °F65 %30.18 in10.0 miNorth (360°)11.5 mph20.7 mph0.00 inOvercast
12:53 PM21.9 °F10.9 °F63 %30.15 in9.0 miNW (320°)16.1 mph26.5 mph0.00 inMostly Cloudy
1:53 PM24.1 °F10.9 °F57 %30.14 in10.0 miNNW (340°)15.0 mph25.3 mphOvercast
2:53 PM24.1 °F9.0 °F53 %30.13 in10.0 miNNW (340°)18.4 mph29.9 mphMostly Cloudy
3:53 PM24.1 °F9.0 °F53 %30.12 in10.0 miNorth (360°)15.0 mph23.0 mphScattered Clouds
4:53 PM21.9 °F8.1 °F55 %30.13 in10.0 miNorth (10°)8.1 mphClear
5:53 PM19.9 °F6.1 °F55 %30.15 in10.0 miNNE (30°)5.8 mphClear
6:53 PM19.0 °F10.0 °F68 %30.17 in10.0 miWNW (300°)11.5 mph17.3 mphScattered Clouds
7:53 PM17.1 °F9.0 °F71 %30.23 in10.0 miNW (320°)5.8 mphOvercast
8:15 PM15.8 °F8.6 °F73 %30.20 in10.0 miCalmOvercast
8:53 PM18.0 °F10.0 °F71 %30.20 in10.0 miVariable4.6 mphOvercast
9:14 PM17.6 °F8.6 °F68 %30.20 in10.0 miCalmOvercast
9:53 PM18.0 °F9.0 °F68 %30.20 in10.0 miNW (310°)8.1 mphOvercast
10:53 PM14.0 °F8.1 °F77 %30.22 in7.0 miVariable4.6 mph0.00 inSnowLight Snow
11:53 PM17.1 °F10.0 °F74 %30.17 in8.0 miNNW (340°)6.9 mph0.00 inSnowLight Snow
Hourly data recorded from KLXV, located miles away from Leadville, Colorado







STORIES FROM OUR PARTNERS